Tracking 19638 objects as of 19-Apr-2019
HD Live streaming from Space Station
objects crossing your sky now

COSMOS 1818 COOLANT

Track COSMOS 1818 COOLANT now!
10-day predictions


NORAD ID: 36132
Int'l Code: 1987-011K
Perigee: 771.0 km
Apogee: 801.1 km
Inclination: 65.0 °
Period: 100.4 minutes
Semi major axis: 7157 km
RCS: 0.0033 m2 (small)
Launch date: February 1, 1987
Source: Commonwealth of Independent States (former USSR) (CIS)
Launch site: TYURATAM MISSILE AND SPACE COMPLEX (TTMTR)

Note: This is SATELLITE DEBRIS
aabbcc
Your satellite tracking list
Your tracking list is empty




NASA's NSSDC Master Catalog

Two Line Element Set (TLE):
1 36132U 87011K   19105.32730835 +.00000048 +00000-0 +53131-4 0  9998
2 36132 065.0130 004.6961 0021006 260.5946 099.2765 14.33849355303547
Source of the keplerian elements: AFSPC